TimeCDT,TemperatureF,Dew PointF,Humidity,Sea Level PressureIn,VisibilityMPH,Wind Direction,Wind SpeedMPH,Gust SpeedMPH,PrecipitationIn,Events,Conditions,WindDirDegrees,DateUTC
12:15 AM,62.6,60.3,92,29.90,10.0,SSW,18.4,32.2,N/A,Rain-Thunderstorm,Light Thunderstorms and Rain,210,2012-10-14 05:15:00
12:35 AM,61.0,59.4,94,29.90,10.0,SSW,16.1,21.9,N/A,Rain-Thunderstorm,Light Thunderstorms and Rain,200,2012-10-14 05:35:00
12:55 AM,61.2,58.1,90,29.85,10.0,SSW,10.4,16.1,N/A,Rain-Thunderstorm,Light Thunderstorms and Rain,210,2012-10-14 05:55:00
1:15 AM,61.7,60.1,94,29.85,10.0,SSW,12.7,18.4,N/A,,Scattered Clouds,210,2012-10-14 06:15:00
1:35 AM,62.6,61.7,97,29.85,10.0,SSW,10.4,-,N/A,Thunderstorm,Thunderstorm,210,2012-10-14 06:35:00
1:55 AM,62.8,61.3,95,29.85,10.0,SW,9.2,-,N/A,,Scattered Clouds,220,2012-10-14 06:55:00
2:35 AM,62.6,60.4,93,29.85,10.0,SSW,10.4,16.1,N/A,,Clear,210,2012-10-14 07:35:00
2:55 AM,62.1,60.4,94,29.86,10.0,SW,10.4,-,N/A,,Clear,220,2012-10-14 07:55:00
3:15 AM,62.1,60.4,94,29.85,10.0,SW,10.4,-,N/A,,Clear,220,2012-10-14 08:15:00
3:35 AM,62.1,60.8,96,29.84,10.0,SW,10.4,-,N/A,,Clear,230,2012-10-14 08:35:00
3:55 AM,61.7,60.8,97,29.85,10.0,SW,11.5,-,N/A,,Clear,230,2012-10-14 08:55:00
4:15 AM,61.7,60.4,96,29.85,10.0,SW,9.2,-,N/A,,Clear,230,2012-10-14 09:15:00
4:35 AM,61.2,60.1,96,29.87,10.0,SSW,9.2,-,N/A,,Clear,210,2012-10-14 09:35:00
4:55 AM,61.2,60.1,96,29.87,10.0,SSW,9.2,-,N/A,,Clear,210,2012-10-14 09:55:00
5:15 AM,60.8,59.9,97,29.88,10.0,SW,10.4,-,N/A,,Clear,230,2012-10-14 10:15:00
5:35 AM,61.3,59.4,93,29.88,10.0,WSW,6.9,-,N/A,,Clear,240,2012-10-14 10:35:00
5:55 AM,60.8,59.4,95,29.89,10.0,WSW,9.2,-,N/A,,Clear,240,2012-10-14 10:55:00
6:15 AM,60.8,59.4,95,29.90,10.0,SW,9.2,-,N/A,,Clear,230,2012-10-14 11:15:00
6:35 AM,60.1,59.2,97,29.91,10.0,WSW,6.9,-,N/A,,Clear,240,2012-10-14 11:35:00
6:55 AM,60.1,59.0,96,29.92,10.0,SW,8.1,-,N/A,,Clear,230,2012-10-14 11:55:00
7:15 AM,59.9,59.0,97,29.92,10.0,SW,8.1,-,N/A,,Clear,220,2012-10-14 12:15:00
7:35 AM,60.3,58.3,93,29.93,10.0,West,8.1,-,N/A,,Clear,260,2012-10-14 12:35:00
7:55 AM,60.8,57.4,88,29.94,10.0,West,8.1,-,N/A,,Clear,270,2012-10-14 12:55:00
8:15 AM,61.2,57.7,88,29.95,10.0,WSW,5.8,-,N/A,,Clear,240,2012-10-14 13:15:00
8:35 AM,61.7,58.1,88,29.96,10.0,WSW,8.1,-,N/A,,Clear,250,2012-10-14 13:35:00
8:55 AM,63.1,57.7,83,29.96,10.0,West,8.1,-,N/A,,Clear,260,2012-10-14 13:55:00
9:15 AM,64.4,57.4,78,29.97,10.0,West,8.1,-,N/A,,Clear,270,2012-10-14 14:15:00
9:35 AM,65.7,57.6,75,29.97,10.0,West,8.1,-,N/A,,Clear,270,2012-10-14 14:35:00
9:55 AM,67.1,56.8,70,29.99,10.0,West,9.2,-,N/A,,Clear,280,2012-10-14 14:55:00
10:15 AM,68.9,56.1,64,30.00,10.0,WNW,9.2,-,N/A,,Clear,300,2012-10-14 15:15:00
10:35 AM,70.0,53.4,56,30.01,10.0,WNW,11.5,16.1,N/A,,Clear,290,2012-10-14 15:35:00
10:55 AM,70.7,53.6,55,30.02,10.0,NW,9.2,-,N/A,,Clear,310,2012-10-14 15:55:00
11:15 AM,70.7,53.2,54,30.03,10.0,NW,11.5,-,N/A,,Clear,310,2012-10-14 16:15:00
11:35 AM,71.8,54.5,54,30.03,10.0,WNW,10.4,-,N/A,,Clear,300,2012-10-14 16:35:00
11:55 AM,72.3,54.1,53,30.03,10.0,NNW,11.5,-,N/A,,Clear,330,2012-10-14 16:55:00
12:15 PM,73.4,54.3,51,30.03,10.0,NNW,8.1,-,N/A,,Clear,340,2012-10-14 17:15:00
12:35 PM,73.9,54.5,51,30.04,10.0,WNW,9.2,-,N/A,,Clear,300,2012-10-14 17:35:00
12:55 PM,75.2,54.7,49,30.04,10.0,NW,8.1,-,N/A,,Clear,310,2012-10-14 17:55:00
1:15 PM,76.3,53.8,45,30.04,10.0,NNW,11.5,19.6,N/A,,Clear,330,2012-10-14 18:15:00
1:35 PM,76.6,53.2,44,30.03,10.0,NNW,13.8,17.3,N/A,,Clear,340,2012-10-14 18:35:00
1:55 PM,77.2,52.9,43,30.02,10.0,NNW,12.7,18.4,N/A,,Clear,340,2012-10-14 18:55:00
2:15 PM,77.9,53.6,43,30.01,10.0,North,10.4,-,N/A,,Clear,350,2012-10-14 19:15:00
2:35 PM,77.9,54.0,43,30.01,10.0,NW,12.7,17.3,N/A,,Clear,310,2012-10-14 19:35:00
2:55 PM,78.4,54.3,43,30.01,10.0,NW,11.5,17.3,N/A,,Clear,320,2012-10-14 19:55:00
3:15 PM,78.3,53.8,43,30.01,10.0,NNW,4.6,17.3,N/A,,Clear,340,2012-10-14 20:15:00
3:35 PM,78.4,52.9,41,30.01,10.0,NNW,10.4,17.3,N/A,,Clear,340,2012-10-14 20:35:00
3:55 PM,78.4,52.5,40,30.01,10.0,NW,8.1,-,N/A,,Clear,320,2012-10-14 20:55:00
4:15 PM,78.8,52.3,40,30.01,10.0,NNW,11.5,18.4,N/A,,Clear,330,2012-10-14 21:15:00
4:35 PM,78.4,52.2,40,30.01,10.0,NW,8.1,-,N/A,,Clear,320,2012-10-14 21:35:00
4:55 PM,78.6,51.3,38,30.01,10.0,NNW,6.9,-,N/A,,Clear,340,2012-10-14 21:55:00
5:15 PM,78.3,51.4,39,30.01,10.0,NNW,11.5,-,N/A,,Clear,340,2012-10-14 22:15:00
5:35 PM,77.5,50.4,38,30.01,10.0,NW,9.2,-,N/A,,Clear,320,2012-10-14 22:35:00
5:55 PM,77.0,50.5,39,30.01,10.0,NW,4.6,-,N/A,,Clear,320,2012-10-14 22:55:00
6:15 PM,75.6,50.2,41,30.02,10.0,NNW,6.9,-,N/A,,Clear,330,2012-10-14 23:15:00
6:35 PM,73.9,49.6,42,30.02,10.0,NNW,5.8,-,N/A,,Clear,330,2012-10-14 23:35:00
6:55 PM,72.3,49.5,44,30.02,10.0,NNW,3.5,-,N/A,,Clear,330,2012-10-14 23:55:00
7:15 PM,70.0,50.4,50,30.03,10.0,NNW,5.8,-,N/A,,Clear,330,2012-10-15 00:15:00
7:35 PM,68.5,50.5,53,30.03,10.0,NNW,4.6,-,N/A,,Clear,340,2012-10-15 00:35:00
7:55 PM,68.0,50.5,54,30.03,10.0,NNW,3.5,-,N/A,,Clear,340,2012-10-15 00:55:00
8:15 PM,66.4,50.7,57,30.04,10.0,NNW,4.6,-,N/A,,Clear,340,2012-10-15 01:15:00
8:35 PM,66.6,49.6,54,30.05,10.0,NW,4.6,-,N/A,,Clear,310,2012-10-15 01:35:00
8:55 PM,66.6,49.1,53,30.05,10.0,NNW,3.5,-,N/A,,Clear,330,2012-10-15 01:55:00
9:15 PM,65.5,49.1,55,30.05,10.0,Calm,Calm,-,N/A,,Clear,0,2012-10-15 02:15:00
9:35 PM,64.2,49.1,58,30.05,10.0,WNW,3.5,-,N/A,,Clear,290,2012-10-15 02:35:00
9:55 PM,64.6,49.1,57,30.06,10.0,NW,3.5,-,N/A,,Clear,320,2012-10-15 02:55:00
10:15 PM,63.0,49.3,61,30.06,10.0,WNW,5.8,-,N/A,,Clear,300,2012-10-15 03:15:00
10:35 PM,62.2,49.8,64,30.06,10.0,WNW,5.8,-,N/A,,Clear,290,2012-10-15 03:35:00
10:55 PM,61.3,49.6,65,30.07,10.0,WNW,5.8,-,N/A,,Clear,300,2012-10-15 03:55:00
11:15 PM,60.8,50.0,68,30.07,10.0,West,4.6,-,N/A,,Clear,280,2012-10-15 04:15:00
11:35 PM,60.3,50.2,69,30.07,10.0,West,5.8,-,N/A,,Clear,280,2012-10-15 04:35:00
11:55 PM,60.4,50.4,69,30.07,10.0,WNW,5.8,-,N/A,,Clear,290,2012-10-15 04:55:00